{"data":{"norad_id":67373,"epoch":"2026-09-20T22:44:44.398176Z","epoch_age_seconds":61708,"freshness":"FRESH","line1":"1 67373U 26004L   26263.94773609  .00000482  00000+0  58384-4 0  9997","line2":"2 67373  97.8088 261.0238 0006078 166.8161 193.3215 14.88078936 37536","mean_motion":14.88078936,"eccentricity":0.0006078,"inclination_deg":97.8088,"raan_deg":261.0238,"arg_perigee_deg":166.8161,"mean_anomaly_deg":193.3215,"bstar":5.8384e-5,"rev_number":3753,"period_min":96.769060105828,"perigee_km":599.69459855987,"apogee_km":608.18200929933,"semimajor_km":6982.0753039296,"source":"CELESTRAK","updated_at":"2026-09-21T09:00:16.593575Z"}}